| time (UTC) | temp F | wind direction | speed knots | gust knots | rain 1hr in | rain 24hr in | rain mn in | humidity % | barometer mb |
| 20260906232541 | 58 | 147 | 2.6 | 6.1 | 0.00 | 0.08 | 0.02 | 86 | 1016.6 |
| 20260906232039 | 58 | 117 | 1.7 | 6.1 | 0.00 | 0.08 | 0.02 | 85 | 1016.6 |
| 20260906231600 | 58 | 109 | 0.9 | 5.2 | 0.00 | 0.08 | 0.02 | 85 | 1016.6 |
| 20260906231039 | 58 | 0 | 1.7 | 6.1 | 0.00 | 0.08 | 0.02 | 86 | 1016.7 |
| 20260906230540 | 57 | 142 | 1.7 | 7.8 | 0.00 | 0.08 | 0.02 | 86 | 1016.7 |
| 20260906230106 | 57 | 123 | 2.6 | 7.8 | 0.00 | 0.08 | 0.02 | 87 | 1016.8 |
| 20260906225539 | 57 | 101 | 3.5 | 7.8 | 0.00 | 0.08 | 0.02 | 87 | 1016.8 |
| 20260906225040 | 57 | 118 | 1.7 | 7.0 | 0.00 | 0.08 | 0.02 | 88 | 1016.9 |
| 20260906224612 | 57 | 106 | 1.7 | 6.1 | 0.00 | 0.08 | 0.02 | 89 | 1016.8 |
| 20260906224039 | 57 | 82 | 1.7 | 6.1 | 0.00 | 0.08 | 0.02 | 89 | 1017.0 |
| 20260906223540 | 57 | 130 | 2.6 | 7.0 | 0.00 | 0.08 | 0.02 | 89 | 1016.8 |
| 20260906223101 | 57 | 112 | 2.6 | 7.0 | 0.00 | 0.08 | 0.02 | 89 | 1017.0 |
| 20260906222539 | 57 | 114 | 2.6 | 7.8 | 0.00 | 0.08 | 0.02 | 90 | 1017.0 |
| 20260906222041 | 57 | 123 | 3.5 | 7.8 | 0.00 | 0.08 | 0.02 | 91 | 1017.1 |
| 20260906221559 | 57 | 114 | 2.6 | 7.0 | 0.00 | 0.08 | 0.02 | 91 | 1017.0 |
| 20260906221039 | 56 | 96 | 1.7 | 7.0 | 0.00 | 0.08 | 0.02 | 92 | 1017.1 |
| 20260906220540 | 56 | 114 | 2.6 | 7.0 | 0.00 | 0.08 | 0.02 | 92 | 1017.1 |
| 20260906220135 | 56 | 73 | 2.6 | 7.0 | 0.00 | 0.08 | 0.02 | 93 | 1017.2 |
| 20260906215540 | 56 | 95 | 2.6 | 7.0 | 0.00 | 0.09 | 0.02 | 93 | 1017.1 |
| 20260906215040 | 56 | 101 | 0.9 | 5.2 | 0.00 | 0.09 | 0.02 | 94 | 1017.2 |
| 20260906214558 | 56 | 99 | 1.7 | 7.8 | 0.00 | 0.09 | 0.02 | 94 | 1017.1 |
| 20260906214040 | 56 | 76 | 3.5 | 7.8 | 0.00 | 0.09 | 0.02 | 94 | 1017.2 |
| 20260906213538 | 56 | 84 | 2.6 | 7.8 | 0.00 | 0.09 | 0.02 | 94 | 1017.1 |
| 20260906213103 | 56 | 84 | 2.6 | 7.8 | 0.00 | 0.09 | 0.02 | 94 | 1017.1 |
| 20260906212539 | 56 | 124 | 2.6 | 7.8 | 0.00 | 0.09 | 0.02 | 95 | 1017.1 |
| 20260906212042 | 55 | 98 | 1.7 | 6.1 | 0.00 | 0.09 | 0.02 | 95 | 1017.1 |
| 20260906211605 | 55 | 76 | 0.9 | 6.1 | 0.00 | 0.09 | 0.02 | 95 | 1017.1 |
| 20260906211036 | 55 | 103 | 0.9 | 5.2 | 0.00 | 0.09 | 0.02 | 95 | 1017.2 |
| 20260906210540 | 54 | 88 | 2.6 | 5.2 | 0.00 | 0.09 | 0.02 | 95 | 1017.2 |
| 20260906210112 | 54 | 90 | 2.6 | 4.3 | 0.00 | 0.09 | 0.02 | 95 | 1017.3 |
| 20260906205540 | 54 | 109 | 0.0 | 5.2 | 0.00 | 0.09 | 0.02 | 96 | 1017.3 |
| 20260906205042 | 54 | 138 | 0.9 | 6.1 | 0.00 | 0.09 | 0.02 | 95 | 1017.4 |
| 20260906204559 | 54 | 91 | 1.7 | 6.1 | 0.00 | 0.09 | 0.02 | 95 | 1017.3 |
| 20260906204040 | 54 | 92 | 1.7 | 5.2 | 0.00 | 0.09 | 0.02 | 95 | 1017.3 |
| 20260906203541 | 54 | 142 | 0.9 | 5.2 | 0.00 | 0.09 | 0.02 | 95 | 1017.4 |
| 20260906203056 | 54 | 134 | 1.7 | 5.2 | 0.00 | 0.09 | 0.02 | 95 | 1017.4 |
| 20260906202540 | 54 | 108 | 1.7 | 5.2 | 0.00 | 0.09 | 0.02 | 95 | 1017.5 |
| 20260906202040 | 54 | 92 | 0.9 | 6.1 | 0.00 | 0.09 | 0.02 | 96 | 1017.5 |
| 20260906201554 | 54 | 136 | 2.6 | 7.8 | 0.00 | 0.09 | 0.02 | 95 | 1017.5 |
| 20260906201037 | 53 | 0 | 1.7 | 7.8 | 0.00 | 0.09 | 0.02 | 95 | 1017.6 |
| 20260906200540 | 53 | 100 | 2.6 | 5.2 | 0.00 | 0.09 | 0.02 | 96 | 1017.6 |
| 20260906200058 | 53 | 68 | 2.6 | 7.8 | 0.00 | 0.09 | 0.02 | 96 | 1017.6 |
| 20260906195539 | 53 | 108 | 1.7 | 7.8 | 0.00 | 0.09 | 0.02 | 96 | 1017.7 |
| 20260906195037 | 53 | 109 | 2.6 | 7.0 | 0.00 | 0.09 | 0.02 | 95 | 1017.6 |
| 20260906194618 | 53 | 80 | 3.5 | 7.0 | 0.00 | 0.09 | 0.02 | 95 | 1017.7 |
| 20260906194039 | 53 | 102 | 2.6 | 7.0 | 0.00 | 0.09 | 0.02 | 95 | 1017.8 |
| 20260906193537 | 53 | 51 | 3.5 | 7.0 | 0.00 | 0.09 | 0.02 | 95 | 1017.7 |
| 20260906193105 | 53 | 86 | 2.6 | 9.6 | 0.00 | 0.09 | 0.02 | 96 | 1017.7 |
| 20260906192540 | 52 | 121 | 4.3 | 9.6 | 0.00 | 0.09 | 0.02 | 95 | 1017.7 |
| 20260906192039 | 52 | 92 | 3.5 | 8.7 | 0.00 | 0.09 | 0.02 | 95 | 1017.8 |
| 20260906191557 | 52 | 78 | 3.5 | 8.7 | 0.00 | 0.09 | 0.02 | 95 | 1017.8 |
| 20260906191040 | 52 | 100 | 4.3 | 8.7 | 0.00 | 0.09 | 0.02 | 95 | 1017.8 |
| 20260906190540 | 52 | 27 | 4.3 | 7.8 | 0.00 | 0.09 | 0.02 | 95 | 1018.0 |
| 20260906185540 | 52 | 101 | 4.3 | 7.8 | 0.00 | 0.09 | 0.02 | 96 | 1017.9 |
| 20260906185043 | 52 | 79 | 1.7 | 7.8 | 0.00 | 0.09 | 0.02 | 96 | 1018.0 |
| 20260906184609 | 52 | 67 | 2.6 | 7.8 | 0.00 | 0.09 | 0.02 | 95 | 1018.0 |
| 20260906184043 | 51 | 78 | 1.7 | 7.8 | 0.00 | 0.09 | 0.02 | 96 | 1018.1 |
| 20260906183539 | 51 | 86 | 3.5 | 7.8 | 0.00 | 0.09 | 0.02 | 95 | 1018.0 |
| 20260906183105 | 51 | 85 | 2.6 | 7.8 | 0.01 | 0.09 | 0.02 | 95 | 1018.1 |
| 20260906182539 | 51 | 71 | 2.6 | 7.8 | 0.01 | 0.09 | 0.02 | 95 | 1018.0 |
| 20260906182038 | 51 | 105 | 3.5 | 7.8 | 0.01 | 0.09 | 0.02 | 95 | 1018.1 |
| 20260906181558 | 51 | 42 | 3.5 | 7.8 | 0.01 | 0.09 | 0.02 | 95 | 1018.0 |
| 20260906181037 | 51 | 68 | 3.5 | 7.0 | 0.01 | 0.09 | 0.02 | 96 | 1018.0 |
| 20260906180536 | 50 | 57 | 2.6 | 5.2 | 0.01 | 0.09 | 0.02 | 95 | 1018.2 |
| 20260906175536 | 50 | 68 | 2.6 | 6.1 | 0.01 | 0.09 | 0.02 | 95 | 1018.2 |
| 20260906175039 | 50 | 66 | 2.6 | 6.1 | 0.01 | 0.09 | 0.02 | 95 | 1018.3 |
| 20260906174557 | 50 | 98 | 2.6 | 5.2 | 0.01 | 0.09 | 0.02 | 95 | 1018.4 |
| 20260906174036 | 50 | 96 | 1.7 | 5.2 | 0.01 | 0.09 | 0.02 | 95 | 1018.5 |
| 20260906173543 | 50 | 88 | 2.6 | 5.2 | 0.01 | 0.09 | 0.02 | 95 | 1018.5 |
| 20260906173057 | 50 | 0 | 1.7 | 6.1 | 0.00 | 0.08 | 0.01 | 95 | 1018.6 |
| 20260906172538 | 50 | 103 | 2.6 | 6.1 | 0.00 | 0.08 | 0.01 | 95 | 1018.6 |
| 20260906172039 | 50 | 93 | 1.7 | 5.2 | 0.00 | 0.08 | 0.01 | 95 | 1018.6 |
| 20260906171607 | 50 | 73 | 1.7 | 4.3 | 0.00 | 0.08 | 0.01 | 95 | 1018.5 |
| 20260906171037 | 50 | 76 | 2.6 | 6.1 | 0.00 | 0.08 | 0.01 | 95 | 1018.5 |
| 20260906170536 | 50 | 57 | 0.9 | 6.1 | 0.00 | 0.08 | 0.01 | 95 | 1018.6 |
| 20260906170058 | 50 | 57 | 2.6 | 6.1 | 0.00 | 0.08 | 0.01 | 95 | 1018.7 |
| 20260906165537 | 50 | 49 | 1.7 | 6.1 | 0.00 | 0.08 | 0.01 | 95 | 1018.8 |
| 20260906165036 | 50 | 77 | 2.6 | 6.1 | 0.00 | 0.08 | 0.01 | 95 | 1018.9 |
| 20260906164602 | 50 | 105 | 1.7 | 5.2 | 0.00 | 0.08 | 0.01 | 95 | 1019.0 |
| 20260906164036 | 50 | 76 | 2.6 | 5.2 | 0.00 | 0.08 | 0.01 | 95 | 1019.0 |
| 20260906163536 | 50 | 43 | 1.7 | 6.1 | 0.00 | 0.08 | 0.01 | 95 | 1019.1 |
| 20260906163059 | 50 | 90 | 2.6 | 6.1 | 0.00 | 0.08 | 0.01 | 95 | 1019.1 |
| 20260906162537 | 50 | 77 | 0.9 | 4.3 | 0.00 | 0.08 | 0.01 | 95 | 1019.0 |
| 20260906162035 | 50 | 67 | 1.7 | 4.3 | 0.00 | 0.08 | 0.01 | 95 | 1019.1 |
| 20260906161603 | 50 | 84 | 0.0 | 2.6 | 0.00 | 0.08 | 0.01 | 95 | 1019.2 |
| 20260906161036 | 50 | 84 | 0.9 | 2.6 | 0.00 | 0.08 | 0.01 | 95 | 1019.1 |
| 20260906160536 | 50 | 84 | 0.0 | 3.5 | 0.00 | 0.08 | 0.01 | 95 | 1019.1 |
| 20260906160101 | 50 | 84 | 0.9 | 3.5 | 0.00 | 0.08 | 0.01 | 95 | 1019.0 |
| 20260906155539 | 50 | 84 | 0.9 | 3.5 | 0.00 | 0.08 | 0.01 | 95 | 1018.9 |
| 20260906155035 | 49 | 84 | 0.0 | 1.7 | 0.00 | 0.08 | 0.01 | 95 | 1019.0 |
| 20260906154604 | 49 | 0 | 0.0 | 2.6 | 0.00 | 0.08 | 0.01 | 95 | 1019.0 |
| 20260906154037 | 49 | 0 | 0.9 | 2.6 | 0.00 | 0.08 | 0.01 | 95 | 1019.1 |
| 20260906153536 | 49 | 84 | 0.9 | 2.6 | 0.00 | 0.08 | 0.01 | 95 | 1019.1 |
| 20260906153101 | 49 | 213 | 0.0 | 1.7 | 0.00 | 0.08 | 0.01 | 95 | 1019.1 |
| 20260906152536 | 49 | 213 | 0.0 | 0.9 | 0.00 | 0.08 | 0.01 | 95 | 1018.9 |
| 20260906152036 | 49 | 0 | 0.0 | 0.9 | 0.00 | 0.08 | 0.01 | 95 | 1019.0 |
| 20260906151558 | 49 | 0 | 0.0 | 0.9 | 0.00 | 0.08 | 0.01 | 95 | 1018.9 |
| 20260906151040 | 49 | 0 | 0.0 | 0.9 | 0.00 | 0.08 | 0.01 | 95 | 1019.1 |
| 20260906150540 | 49 | 0 | 0.0 | 0.0 | 0.00 | 0.08 | 0.01 | 95 | 1018.9 |
| 20260906150105 | 49 | 0 | 0.0 | 0.9 | 0.00 | 0.08 | 0.01 | 95 | 1018.9 |
| 20260906145540 | 49 | 0 | 0.0 | 0.9 | 0.00 | 0.08 | 0.01 | 95 | 1019.1 |
| 20260906145040 | 49 | 213 | 0.0 | 0.9 | 0.00 | 0.08 | 0.01 | 95 | 1019.0 |
| 20260906144620 | 49 | 0 | 0.0 | 0.9 | 0.00 | 0.08 | 0.01 | 95 | 1018.9 |
| 20260906144039 | 49 | 0 | 0.0 | 0.9 | 0.00 | 0.08 | 0.01 | 95 | 1018.8 |
| 20260906143540 | 49 | 0 | 0.0 | 0.9 | 0.00 | 0.08 | 0.01 | 95 | 1019.0 |
| 20260906143102 | 48 | 0 | 0.0 | 0.9 | 0.00 | 0.08 | 0.01 | 95 | 1018.8 |
| 20260906142540 | 48 | 0 | 0.0 | 0.0 | 0.00 | 0.08 | 0.01 | 95 | 1018.9 |
| 20260906142043 | 48 | 0 | 0.0 | 0.0 | 0.00 | 0.08 | 0.01 | 95 | 1018.9 |
| 20260906141632 | 48 | 0 | 0.0 | 0.0 | 0.00 | 0.08 | 0.01 | 95 | 1019.0 |
| 20260906141044 | 48 | 0 | 0.0 | 0.0 | 0.00 | 0.08 | 0.01 | 95 | 1019.1 |
| 20260906140540 | 48 | 0 | 0.0 | 0.9 | 0.00 | 0.08 | 0.01 | 95 | 1019.1 |
| 20260906140110 | 48 | 0 | 0.0 | 0.9 | 0.00 | 0.08 | 0.01 | 95 | 1019.1 |
| 20260906135540 | 48 | 213 | 0.0 | 1.7 | 0.00 | 0.08 | 0.01 | 95 | 1019.1 |
| 20260906135040 | 48 | 0 | 0.0 | 1.7 | 0.00 | 0.08 | 0.01 | 95 | 1019.3 |
| 20260906134606 | 48 | 213 | 0.0 | 1.7 | 0.01 | 0.08 | 0.01 | 95 | 1019.2 |
| 20260906134040 | 48 | 0 | 0.0 | 1.7 | 0.01 | 0.08 | 0.01 | 95 | 1019.2 |
| 20260906133540 | 48 | 0 | 0.0 | 1.7 | 0.01 | 0.08 | 0.01 | 95 | 1019.2 |
| 20260906133101 | 48 | 213 | 0.9 | 1.7 | 0.01 | 0.08 | 0.01 | 95 | 1019.3 |
| 20260906132540 | 48 | 0 | 0.0 | 0.9 | 0.01 | 0.08 | 0.01 | 95 | 1019.3 |
| 20260906132044 | 48 | 0 | 0.0 | 0.9 | 0.01 | 0.08 | 0.01 | 95 | 1019.3 |
| 20260906131557 | 48 | 0 | 0.0 | 0.9 | 0.01 | 0.08 | 0.01 | 95 | 1019.1 |
| 20260906131040 | 48 | 213 | 0.0 | 0.9 | 0.01 | 0.08 | 0.01 | 95 | 1019.2 |
| 20260906130540 | 48 | 0 | 0.0 | 0.0 | 0.01 | 0.08 | 0.01 | 95 | 1019.1 |
| 20260906130056 | 48 | 0 | 0.0 | 0.9 | 0.01 | 0.08 | 0.01 | 95 | 1019.0 |
| 20260906125543 | 48 | 0 | 0.0 | 0.9 | 0.01 | 0.08 | 0.01 | 95 | 1019.2 |
| 20260906125042 | 48 | 0 | 0.0 | 0.9 | 0.00 | 0.07 | 0.00 | 95 | 1019.4 |
| 20260906124559 | 48 | 0 | 0.0 | 0.9 | 0.00 | 0.07 | 0.00 | 95 | 1019.5 |
| 20260906124043 | 48 | 0 | 0.0 | 1.7 | 0.00 | 0.07 | 0.00 | 94 | 1019.6 |
| 20260906123540 | 48 | 0 | 0.0 | 1.7 | 0.00 | 0.07 | 0.00 | 94 | 1019.6 |
| 20260906123105 | 48 | 0 | 0.0 | 1.7 | 0.00 | 0.07 | 0.00 | 94 | 1019.7 |
| 20260906122540 | 48 | 213 | 0.0 | 1.7 | 0.00 | 0.07 | 0.00 | 94 | 1019.6 |
| 20260906122040 | 48 | 0 | 0.0 | 1.7 | 0.00 | 0.07 | 0.00 | 94 | 1019.8 |
| 20260906121559 | 48 | 213 | 0.0 | 1.7 | 0.00 | 0.07 | 0.00 | 94 | 1019.7 |
| 20260906121037 | 48 | 0 | 0.0 | 1.7 | 0.00 | 0.07 | 0.00 | 95 | 1019.8 |
| 20260906120537 | 48 | 0 | 0.0 | 2.6 | 0.00 | 0.07 | 0.00 | 94 | 1020.0 |
| 20260906120104 | 48 | 213 | 0.9 | 3.5 | 0.00 | 0.07 | 0.00 | 95 | 1020.2 |
| 20260906115540 | 48 | 213 | 0.9 | 3.5 | 0.00 | 0.07 | 0.00 | 94 | 1020.4 |
| 20260906115040 | 48 | 0 | 0.0 | 1.7 | 0.00 | 0.07 | 0.00 | 94 | 1020.6 |
| 20260906114558 | 48 | 0 | 0.0 | 1.7 | 0.00 | 0.07 | 0.00 | 94 | 1020.6 |
| 20260906114040 | 48 | 213 | 0.0 | 1.7 | 0.00 | 0.07 | 0.00 | 94 | 1020.6 |
| 20260906113540 | 48 | 213 | 0.0 | 1.7 | 0.00 | 0.07 | 0.00 | 94 | 1020.4 |
| 20260906113104 | 48 | 213 | 0.0 | 0.9 | 0.00 | 0.07 | 0.00 | 94 | 1020.5 |
| 20260906112539 | 48 | 0 | 0.0 | 1.7 | 0.00 | 0.07 | 0.00 | 94 | 1020.6 |
| 20260906112040 | 48 | 0 | 0.0 | 2.6 | 0.00 | 0.07 | 0.00 | 94 | 1020.7 |
| 20260906111556 | 48 | 213 | 0.9 | 2.6 | 0.00 | 0.07 | 0.00 | 94 | 1020.7 |
| 20260906111039 | 48 | 188 | 0.9 | 2.6 | 0.00 | 0.07 | 0.00 | 94 | 1020.7 |
| 20260906110540 | 48 | 0 | 0.0 | 1.7 | 0.00 | 0.07 | 0.00 | 94 | 1020.8 |
| 20260906110057 | 48 | 0 | 0.0 | 2.6 | 0.00 | 0.07 | 0.00 | 94 | 1020.7 |
| 20260906105540 | 48 | 0 | 0.0 | 3.5 | 0.00 | 0.07 | 0.00 | 94 | 1020.7 |
| 20260906105039 | 48 | 224 | 1.7 | 3.5 | 0.00 | 0.07 | 0.00 | 94 | 1020.7 |
| 20260906104611 | 48 | 0 | 0.0 | 1.7 | 0.00 | 0.07 | 0.00 | 94 | 1020.5 |
| 20260906104040 | 48 | 0 | 0.0 | 1.7 | 0.00 | 0.07 | 0.00 | 94 | 1020.6 |
| 20260906103539 | 48 | 40 | 0.0 | 1.7 | 0.00 | 0.07 | 0.00 | 94 | 1020.6 |
| 20260906103057 | 48 | 0 | 0.0 | 1.7 | 0.00 | 0.07 | 0.00 | 94 | 1020.2 |
| 20260906102543 | 48 | 0 | 0.0 | 1.7 | 0.00 | 0.07 | 0.00 | 94 | 1020.2 |
| 20260906102040 | 48 | 40 | 0.0 | 1.7 | 0.00 | 0.07 | 0.00 | 94 | 1020.3 |
| 20260906101600 | 48 | 40 | 0.0 | 1.7 | 0.00 | 0.07 | 0.00 | 94 | 1020.4 |
| 20260906101039 | 48 | 0 | 0.0 | 2.6 | 0.00 | 0.07 | 0.00 | 94 | 1020.4 |
| 20260906100536 | 48 | 40 | 0.9 | 3.5 | 0.00 | 0.07 | 0.00 | 94 | 1020.3 |
| 20260906100056 | 48 | 40 | 0.9 | 3.5 | 0.00 | 0.07 | 0.00 | 94 | 1020.4 |
| 20260906095542 | 48 | 40 | 0.9 | 3.5 | 0.00 | 0.07 | 0.00 | 94 | 1020.4 |
| 20260906095040 | 48 | 56 | 0.9 | 2.6 | 0.00 | 0.07 | 0.00 | 94 | 1020.5 |
| 20260906094640 | 48 | 56 | 0.0 | 2.6 | 0.00 | 0.07 | 0.00 | 94 | 1020.9 |
| 20260906094040 | 48 | 56 | 0.9 | 2.6 | 0.00 | 0.07 | 0.00 | 94 | 1021.0 |
| 20260906093540 | 48 | 56 | 0.0 | 3.5 | 0.00 | 0.07 | 0.00 | 94 | 1021.1 |
| 20260906093108 | 48 | 56 | 0.9 | 3.5 | 0.00 | 0.07 | 0.00 | 94 | 1021.1 |
| 20260906092540 | 48 | 20 | 0.9 | 3.5 | 0.00 | 0.07 | 0.00 | 94 | 1021.0 |
| 20260906092040 | 48 | 61 | 1.7 | 3.5 | 0.00 | 0.07 | 0.00 | 94 | 1021.0 |
| 20260906091555 | 47 | 0 | 0.0 | 0.9 | 0.00 | 0.07 | 0.00 | 94 | 1021.0 |
| 20260906091042 | 47 | 0 | 0.0 | 0.9 | 0.00 | 0.07 | 0.00 | 94 | 1021.1 |
| 20260906090540 | 47 | 0 | 0.0 | 0.9 | 0.00 | 0.07 | 0.00 | 93 | 1021.1 |
| 20260906090105 | 47 | 0 | 0.0 | 0.9 | 0.00 | 0.07 | 0.00 | 93 | 1021.1 |
| 20260906085540 | 47 | 0 | 0.0 | 0.9 | 0.00 | 0.07 | 0.00 | 93 | 1021.2 |
| 20260906085040 | 47 | 0 | 0.0 | 0.9 | 0.00 | 0.07 | 0.00 | 93 | 1021.4 |
| 20260906084601 | 47 | 0 | 0.0 | 0.9 | 0.00 | 0.07 | 0.00 | 94 | 1021.4 |
| 20260906084039 | 47 | 0 | 0.0 | 1.7 | 0.00 | 0.07 | 0.00 | 94 | 1021.5 |
| 20260906083540 | 47 | 98 | 0.0 | 1.7 | 0.00 | 0.07 | 0.00 | 94 | 1021.7 |
| 20260906083057 | 47 | 0 | 0.0 | 2.6 | 0.00 | 0.07 | 0.00 | 94 | 1021.9 |
| 20260906082540 | 47 | 0 | 0.0 | 2.6 | 0.00 | 0.07 | 0.00 | 93 | 1021.9 |
| 20260906082040 | 48 | 0 | 0.9 | 2.6 | 0.00 | 0.07 | 0.00 | 93 | 1022.0 |
| 20260906081600 | 48 | 290 | 0.9 | 1.7 | 0.00 | 0.07 | 0.00 | 93 | 1022.0 |
| 20260906081037 | 48 | 0 | 0.0 | 2.6 | 0.00 | 0.07 | 0.00 | 94 | 1021.7 |
| 20260906080540 | 48 | 0 | 0.0 | 2.6 | 0.00 | 0.07 | 0.00 | 94 | 1021.7 |
| 20260906080058 | 48 | 0 | 0.0 | 1.7 | 0.00 | 0.07 | 0.00 | 93 | 1021.6 |
| 20260906075539 | 48 | 215 | 0.0 | 1.7 | 0.00 | 0.07 | 0.00 | 93 | 1021.5 |
| 20260906075036 | 48 | 215 | 0.0 | 1.7 | 0.00 | 0.07 | 0.00 | 93 | 1021.6 |
| 20260906074557 | 48 | 0 | 0.0 | 0.9 | 0.00 | 0.07 | 0.00 | 93 | 1021.8 |
| 20260906074041 | 49 | 0 | 0.0 | 0.0 | 0.00 | 0.07 | 0.00 | 93 | 1021.8 |
| 20260906073540 | 49 | 0 | 0.0 | 0.9 | 0.00 | 0.07 | 0.00 | 93 | 1021.8 |
| 20260906073058 | 49 | 0 | 0.0 | 0.9 | 0.00 | 0.07 | 0.00 | 94 | 1021.8 |
| 20260906072540 | 49 | 0 | 0.0 | 1.7 | 0.00 | 0.07 | 0.00 | 94 | 1021.9 |
| 20260906072036 | 49 | 0 | 0.0 | 1.7 | 0.00 | 0.07 | 0.00 | 94 | 1022.0 |
| 20260906071558 | 49 | 0 | 0.0 | 1.7 | 0.00 | 0.07 | 0.00 | 94 | 1022.0 |
| 20260906071101 | 49 | 0 | 0.0 | 1.7 | 0.00 | 0.07 | 0.00 | 94 | 1022.0 |
| 20260906070537 | 49 | 0 | 0.0 | 1.7 | 0.00 | 0.07 | 0.00 | 94 | 1022.0 |
| 20260906070100 | 49 | 0 | 0.0 | 1.7 | 0.00 | 0.07 | 0.00 | 94 | 1022.1 |
| 20260906065539 | 49 | 0 | 0.0 | 1.7 | 0.00 | 0.07 | 0.00 | 94 | 1022.2 |
| 20260906065038 | 49 | 0 | 0.0 | 1.7 | 0.00 | 0.07 | 0.00 | 94 | 1022.1 |
| 20260906064601 | 49 | 0 | 0.0 | 1.7 | 0.00 | 0.07 | 0.00 | 94 | 1022.0 |
| 20260906064040 | 49 | 215 | 0.0 | 1.7 | 0.00 | 0.07 | 0.00 | 94 | 1022.1 |
| 20260906063537 | 49 | 0 | 0.0 | 1.7 | 0.00 | 0.07 | 0.00 | 94 | 1022.0 |
| 20260906063100 | 49 | 0 | 0.0 | 1.7 | 0.00 | 0.07 | 0.00 | 94 | 1022.1 |
| 20260906062539 | 49 | 215 | 0.0 | 1.7 | 0.00 | 0.07 | 0.00 | 93 | 1022.1 |
| 20260906062040 | 49 | 0 | 0.0 | 1.7 | 0.00 | 0.07 | 0.00 | 93 | 1022.0 |
| 20260906061602 | 49 | 0 | 0.0 | 0.9 | 0.00 | 0.07 | 0.00 | 93 | 1022.1 |
| 20260906061037 | 49 | 0 | 0.0 | 1.7 | 0.00 | 0.07 | 0.00 | 93 | 1022.1 |
| 20260906060540 | 49 | 0 | 0.0 | 1.7 | 0.00 | 0.07 | 0.00 | 93 | 1022.0 |
| 20260906060100 | 49 | 0 | 0.0 | 1.7 | 0.00 | 0.07 | 0.00 | 93 | 1022.1 |
| 20260906055539 | 49 | 0 | 0.0 | 1.7 | 0.00 | 0.07 | 0.07 | 93 | 1022.2 |
| 20260906055040 | 49 | 0 | 0.0 | 1.7 | 0.00 | 0.07 | 0.07 | 93 | 1022.1 |
| 20260906054557 | 49 | 0 | 0.0 | 2.6 | 0.00 | 0.07 | 0.07 | 93 | 1022.1 |
| 20260906054040 | 49 | 0 | 0.0 | 2.6 | 0.00 | 0.07 | 0.07 | 93 | 1022.1 |
| 20260906053536 | 49 | 215 | 1.7 | 3.5 | 0.00 | 0.07 | 0.07 | 93 | 1022.2 |
| 20260906053104 | 49 | 215 | 1.7 | 3.5 | 0.00 | 0.07 | 0.07 | 93 | 1022.2 |
| 20260906052538 | 49 | 254 | 0.0 | 1.7 | 0.00 | 0.07 | 0.07 | 93 | 1022.1 |
| 20260906052038 | 49 | 0 | 0.0 | 1.7 | 0.00 | 0.07 | 0.07 | 93 | 1022.1 |
| 20260906051556 | 49 | 0 | 0.0 | 2.6 | 0.00 | 0.07 | 0.07 | 93 | 1022.1 |
| 20260906051042 | 49 | 0 | 0.0 | 2.6 | 0.00 | 0.07 | 0.07 | 93 | 1022.1 |
| 20260906050537 | 49 | 16 | 0.0 | 1.7 | 0.00 | 0.07 | 0.07 | 93 | 1022.1 |
| 20260906050114 | 49 | 0 | 0.0 | 0.9 | 0.00 | 0.07 | 0.07 | 93 | 1022.1 |
| 20260906045538 | 49 | 0 | 0.0 | 1.7 | 0.00 | 0.07 | 0.07 | 93 | 1022.1 |
| 20260906045037 | 49 | 0 | 0.0 | 1.7 | 0.00 | 0.07 | 0.07 | 93 | 1022.2 |
| 20260906044600 | 49 | 0 | 0.0 | 1.7 | 0.00 | 0.07 | 0.07 | 93 | 1022.2 |
| 20260906044040 | 49 | 0 | 0.0 | 1.7 | 0.00 | 0.07 | 0.07 | 93 | 1022.1 |
| 20260906043540 | 49 | 16 | 0.0 | 1.7 | 0.00 | 0.07 | 0.07 | 93 | 1022.2 |
| 20260906043058 | 49 | 16 | 0.0 | 1.7 | 0.00 | 0.07 | 0.07 | 93 | 1022.1 |
| 20260906042538 | 49 | 0 | 0.9 | 1.7 | 0.00 | 0.07 | 0.07 | 93 | 1022.1 |
| 20260906042038 | 49 | 0 | 0.0 | 0.9 | 0.00 | 0.07 | 0.07 | 93 | 1022.1 |
| 20260906041558 | 49 | 0 | 0.0 | 0.9 | 0.00 | 0.07 | 0.07 | 93 | 1022.0 |
| 20260906041040 | 49 | 0 | 0.0 | 2.6 | 0.00 | 0.07 | 0.07 | 93 | 1022.0 |
| 20260906040540 | 49 | 0 | 0.0 | 2.6 | 0.00 | 0.07 | 0.07 | 93 | 1021.9 |
| 20260906040132 | 49 | 0 | 0.0 | 2.6 | 0.00 | 0.07 | 0.07 | 93 | 1021.9 |
| 20260906035541 | 49 | 0 | 0.0 | 1.7 | 0.00 | 0.07 | 0.07 | 93 | 1021.8 |
| 20260906035039 | 49 | 0 | 0.0 | 2.6 | 0.00 | 0.07 | 0.07 | 93 | 1021.8 |
| 20260906034603 | 49 | 0 | 0.0 | 2.6 | 0.00 | 0.07 | 0.07 | 93 | 1021.7 |
| 20260906034037 | 49 | 325 | 0.0 | 2.6 | 0.01 | 0.07 | 0.07 | 93 | 1021.7 |
| 20260906033539 | 49 | 346 | 0.0 | 3.5 | 0.01 | 0.07 | 0.07 | 93 | 1021.7 |
| 20260906033104 | 49 | 322 | 0.0 | 3.5 | 0.01 | 0.07 | 0.07 | 93 | 1021.7 |
| 20260906032539 | 49 | 322 | 0.0 | 2.6 | 0.01 | 0.07 | 0.07 | 93 | 1021.6 |
| 20260906032038 | 49 | 288 | 0.9 | 2.6 | 0.01 | 0.07 | 0.07 | 93 | 1021.6 |
| 20260906031602 | 49 | 0 | 0.0 | 2.6 | 0.01 | 0.07 | 0.07 | 93 | 1021.6 |
| 20260906031038 | 49 | 0 | 0.9 | 3.5 | 0.01 | 0.07 | 0.07 | 93 | 1021.5 |
| 20260906030540 | 49 | 0 | 0.0 | 3.5 | 0.01 | 0.07 | 0.07 | 93 | 1021.7 |
| 20260906030057 | 49 | 275 | 0.9 | 3.5 | 0.01 | 0.07 | 0.07 | 93 | 1021.8 |
| 20260906025538 | 49 | 288 | 0.9 | 3.5 | 0.01 | 0.07 | 0.07 | 93 | 1021.7 |
| 20260906025039 | 49 | 0 | 0.9 | 3.5 | 0.01 | 0.07 | 0.07 | 92 | 1021.6 |
| 20260906024602 | 49 | 284 | 0.0 | 3.5 | 0.02 | 0.07 | 0.07 | 92 | 1021.5 |
| 20260906024043 | 49 | 320 | 0.0 | 3.5 | 0.01 | 0.06 | 0.06 | 92 | 1021.5 |
| 20260906023540 | 49 | 0 | 0.9 | 3.5 | 0.01 | 0.06 | 0.06 | 92 | 1021.6 |
| 20260906023102 | 49 | 263 | 0.0 | 2.6 | 0.01 | 0.06 | 0.06 | 92 | 1021.5 |
| 20260906022540 | 49 | 0 | 0.0 | 2.6 | 0.01 | 0.06 | 0.06 | 92 | 1021.5 |
| 20260906022041 | 49 | 287 | 0.0 | 2.6 | 0.01 | 0.06 | 0.06 | 92 | 1021.5 |
| 20260906021605 | 49 | 0 | 0.0 | 5.2 | 0.01 | 0.06 | 0.06 | 92 | 1021.5 |
| 20260906021037 | 49 | 284 | 0.9 | 5.2 | 0.01 | 0.06 | 0.06 | 92 | 1021.6 |
| 20260906020540 | 49 | 303 | 0.9 | 5.2 | 0.02 | 0.06 | 0.06 | 92 | 1021.6 |
| 20260906020107 | 49 | 0 | 0.0 | 2.6 | 0.02 | 0.06 | 0.06 | 92 | 1021.6 |
| 20260906015537 | 49 | 319 | 0.0 | 2.6 | 0.02 | 0.06 | 0.06 | 92 | 1021.6 |
| 20260906015039 | 49 | 317 | 0.0 | 2.6 | 0.02 | 0.06 | 0.06 | 92 | 1021.6 |
| 20260906014601 | 49 | 336 | 0.0 | 2.6 | 0.01 | 0.05 | 0.05 | 92 | 1021.5 |
| 20260906014037 | 49 | 0 | 0.0 | 2.6 | 0.02 | 0.05 | 0.05 | 92 | 1021.4 |
| 20260906013538 | 49 | 0 | 0.9 | 2.6 | 0.03 | 0.05 | 0.05 | 92 | 1021.4 |
| 20260906013101 | 49 | 288 | 0.0 | 2.6 | 0.03 | 0.05 | 0.05 | 92 | 1021.5 |
| 20260906012537 | 49 | 274 | 0.0 | 2.6 | 0.04 | 0.05 | 0.05 | 92 | 1021.3 |
| 20260906012038 | 49 | 317 | 0.9 | 2.6 | 0.04 | 0.05 | 0.05 | 92 | 1021.4 |
| 20260906011602 | 49 | 317 | 0.0 | 3.5 | 0.04 | 0.05 | 0.05 | 91 | 1021.2 |
| 20260906011042 | 49 | 0 | 0.9 | 3.5 | 0.04 | 0.05 | 0.05 | 91 | 1021.2 |
| 20260906010537 | 50 | 0 | 0.9 | 2.6 | 0.03 | 0.04 | 0.04 | 91 | 1021.3 |
| 20260906010105 | 50 | 0 | 0.0 | 1.7 | 0.03 | 0.04 | 0.04 | 91 | 1021.3 |
| 20260906005540 | 50 | 0 | 0.0 | 1.7 | 0.03 | 0.04 | 0.04 | 91 | 1021.2 |
| 20260906005040 | 50 | 0 | 0.0 | 1.7 | 0.03 | 0.04 | 0.04 | 91 | 1021.3 |
| 20260906004603 | 50 | 0 | 0.0 | 1.7 | 0.03 | 0.04 | 0.04 | 91 | 1021.3 |
| 20260906004038 | 49 | 0 | 0.0 | 0.9 | 0.02 | 0.03 | 0.03 | 91 | 1021.4 |
| 20260906003540 | 49 | 0 | 0.0 | 0.9 | 0.01 | 0.02 | 0.02 | 91 | 1021.3 |
| 20260906003100 | 49 | 0 | 0.0 | 2.6 | 0.01 | 0.02 | 0.02 | 91 | 1021.3 |
| 20260906002539 | 49 | 0 | 0.0 | 2.6 | 0.00 | 0.01 | 0.01 | 91 | 1021.3 |
| 20260906002037 | 49 | 0 | 0.0 | 2.6 | 0.00 | 0.01 | 0.01 | 91 | 1021.2 |
| 20260906001607 | 49 | 0 | 0.0 | 2.6 | 0.00 | 0.01 | 0.01 | 91 | 1021.1 |
| 20260906001037 | 49 | 0 | 0.0 | 2.6 | 0.00 | 0.01 | 0.01 | 90 | 1021.2 |
| 20260906000537 | 49 | 0 | 0.0 | 2.6 | 0.00 | 0.01 | 0.01 | 90 | 1021.2 |
| 20260905235540 | 49 | 340 | 0.9 | 4.3 | 0.00 | 0.01 | 0.01 | 90 | 1021.2 |
| 20260905235040 | 49 | 343 | 0.0 | 2.6 | 0.00 | 0.01 | 0.01 | 90 | 1021.2 |
| 20260905234601 | 49 | 338 | 0.0 | 2.6 | 0.00 | 0.01 | 0.01 | 90 | 1021.1 |
| 20260905234037 | 49 | 338 | 0.0 | 2.6 | 0.00 | 0.01 | 0.01 | 90 | 1021.2 |
| 20260905233539 | 49 | 17 | 0.0 | 3.5 | 0.00 | 0.01 | 0.01 | 90 | 1021.1 |
| 20260905233109 | 49 | 330 | 0.9 | 3.5 | 0.00 | 0.01 | 0.01 | 90 | 1021.1 |